DW4028 Weather Reports


Display with metric or nautical units.
time (UTC)temp
F
wind
direction
speed
MPH
gust
MPH
rain 1hr
in
rain 24hr
in
rain mn
in
humidity
%
barometer
mb
20260503013006 48 168 0.0 2.0 0.00 0.01 0.01 88 1010.8
20260503011512 49 168 0.0 1.0 0.00 0.01 0.01 88 1010.8
20260503010019 49 136 0.0 2.0 0.00 0.01 0.01 87 1010.7
20260503004510 49 165 0.0 2.0 0.00 0.01 0.01 87 1010.6
20260503003016 49 150 1.0 2.0 0.00 0.01 0.01 86 1010.5
20260503001521 49 142 1.0 2.0 0.00 0.01 0.01 86 1010.4
20260503000010 49 143 0.0 3.0 0.00 0.01 0.01 85 1010.5
20260502234527 49 175 0.0 2.0 0.00 0.01 0.01 85 1010.5
20260502233025 50 144 1.0 4.0 0.00 0.01 0.01 84 1010.6
20260502231512 50 181 0.0 2.0 0.00 0.01 0.01 84 1010.5
20260502230029 50 139 1.0 4.0 0.00 0.01 0.01 84 1010.6
20260502224507 50 143 2.0 3.0 0.00 0.01 0.01 84 1010.5
20260502223020 50 148 2.0 3.0 0.00 0.01 0.01 84 1010.4
20260502221521 50 190 0.0 5.0 0.00 0.01 0.01 84 1010.4
20260502220011 50 169 1.0 3.0 0.00 0.01 0.01 83 1010.4
20260502214523 51 173 0.0 3.0 0.00 0.01 0.01 83 1010.4
20260502213026 51 221 2.0 6.0 0.00 0.01 0.01 82 1010.4
20260502211517 50 130 3.0 7.0 0.00 0.01 0.01 81 1010.4
20260502210021 51 170 3.0 7.0 0.00 0.01 0.01 81 1010.4
20260502204512 51 166 4.0 9.0 0.00 0.01 0.01 80 1010.4
20260502203021 51 178 3.0 11.0 0.00 0.01 0.01 80 1010.5
20260502201504 51 159 5.0 10.0 0.00 0.01 0.01 81 1010.7
20260502200010 51 197 4.0 12.0 0.00 0.01 0.01 80 1010.6
20260502194504 52 171 5.0 15.0 0.00 0.01 0.01 80 1010.9
20260502193010 52 338 5.0 10.0 0.00 0.01 0.01 80 1011.0
20260502191513 51 233 6.0 12.0 0.00 0.01 0.01 78 1011.3
20260502190009 51 193 2.0 10.0 0.01 0.01 0.01 79 1011.5
20260502184524 52 230 2.0 12.0 0.01 0.01 0.01 81 1011.4
20260502183010 52 192 3.0 12.0 0.01 0.01 0.01 82 1011.2
20260502181505 51 218 1.0 2.0 0.01 0.01 0.01 84 1011.5
20260502163024 56 360 3.0 8.0 0.00 0.00 0.00 66 1011.6
20260502161510 57 38 2.0 9.0 0.00 0.00 0.00 68 1011.6
20260502151503 54 104 2.0 6.0 0.00 0.00 0.00 72 1012.4
20260502123021 50 198 3.0 7.0 0.00 0.00 0.00 77 1012.8
20260502121515 51 360 2.0 11.0 0.00 0.00 0.00 75 1012.7
20260502114517 50 84 5.0 11.0 0.00 0.00 0.00 75 1012.1
20260502113019 48 197 4.0 6.0 0.00 0.00 0.00 78 1011.9
20260502111515 48 225 2.0 5.0 0.00 0.00 0.00 78 1012.1
20260502110014 48 193 0.0 4.0 0.00 0.00 0.00 78 1012.2
20260502104523 47 217 1.0 3.0 0.00 0.00 0.00 78 1011.9
20260502103009 47 190 0.0 3.0 0.00 0.00 0.00 78 1011.8
20260502101534 47 150 3.0 5.0 0.00 0.00 0.00 78 1011.8
20260502091528 46 195 0.0 2.0 0.00 0.00 0.00 77 1011.7
20260502071514 46 178 0.0 2.0 0.00 0.00 0.00 74 1011.4
20260502070016 46 180 0.0 2.0 0.00 0.00 0.00 73 1011.5
20260502064515 47 171 0.0 4.0 0.00 0.00 0.00 72 1011.5
20260502063025 47 167 0.0 2.0 0.00 0.00 0.00 74 1011.7
20260502061517 46 151 0.0 2.0 0.00 0.00 0.00 74 1011.8
20260502060018 45 150 1.0 1.0 0.00 0.00 0.00 75 1011.8
20260502054515 46 153 0.0 2.0 0.00 0.00 0.00 73 1011.8
20260502053022 46 152 0.0 0.0 0.00 0.00 0.00 72 1011.9
20260502051528 48 155 0.0 2.0 0.00 0.00 0.00 70 1011.8
20260502050028 48 158 1.0 2.0 0.00 0.00 0.00 68 1012.0
20260502044524 49 165 0.0 2.0 0.00 0.00 0.00 66 1012.0
20260502043024 50 211 0.0 4.0 0.00 0.00 0.00 66 1012.0
20260502041529 49 162 0.0 3.0 0.00 0.00 0.00 65 1012.1
20260502040025 49 146 1.0 3.0 0.00 0.00 0.00 64 1012.1
20260502034517 49 173 0.0 5.0 0.00 0.00 0.00 62 1012.1
20260502033027 50 206 2.0 4.0 0.00 0.00 0.00 59 1012.1
20260502031526 50 186 0.0 3.0 0.00 0.00 0.00 58 1012.0
20260502030020 51 215 0.0 4.0 0.00 0.00 0.00 57 1012.0
20260502024527 51 188 0.0 3.0 0.00 0.00 0.00 55 1011.9
20260502023028 51 173 1.0 4.0 0.00 0.00 0.00 54 1011.9
20260502021522 51 198 1.0 2.0 0.00 0.00 0.00 54 1011.9
20260502020028 49 189 0.0 4.0 0.00 0.00 0.00 55 1011.9
20260502014527 49 207 0.0 2.0 0.00 0.00 0.00 53 1011.7